TimeEST,TemperatureF,Dew PointF,Humidity,Sea Level PressureIn,VisibilityMPH,Wind Direction,Wind SpeedMPH,Gust SpeedMPH,PrecipitationIn,Events,Conditions,WindDirDegrees,DateUTC
12:15 AM,19.2,7.7,61,30.06,10.0,WNW,10.4,-,N/A,,Scattered Clouds,300,2013-02-17 05:15:00
12:35 AM,18.5,7.7,63,30.07,10.0,WNW,8.1,-,N/A,,Clear,290,2013-02-17 05:35:00
12:55 AM,17.8,6.8,62,30.07,10.0,WNW,9.2,-,N/A,,Clear,290,2013-02-17 05:55:00
1:15 AM,17.6,6.1,61,30.08,10.0,WNW,8.1,-,N/A,,Scattered Clouds,290,2013-02-17 06:15:00
1:35 AM,17.6,6.1,61,30.08,10.0,West,8.1,-,N/A,,Mostly Cloudy,280,2013-02-17 06:35:00
1:55 AM,17.6,5.7,60,30.07,10.0,WNW,10.4,-,N/A,,Overcast,290,2013-02-17 06:55:00
2:15 AM,17.6,5.5,59,30.07,10.0,WNW,13.8,-,N/A,,Overcast,290,2013-02-17 07:15:00
2:35 AM,17.6,5.9,60,30.08,10.0,WNW,10.4,-,N/A,,Overcast,290,2013-02-17 07:35:00
2:55 AM,17.6,6.3,61,30.08,10.0,WNW,10.4,-,N/A,,Overcast,290,2013-02-17 07:55:00
3:15 AM,17.4,6.4,62,30.08,10.0,WNW,8.1,-,N/A,,Overcast,290,2013-02-17 08:15:00
3:35 AM,17.4,6.8,63,30.08,10.0,WNW,10.4,-,N/A,,Overcast,290,2013-02-17 08:35:00
3:55 AM,16.9,6.8,65,30.08,10.0,WNW,6.9,-,N/A,,Mostly Cloudy,290,2013-02-17 08:55:00
4:15 AM,16.3,6.8,66,30.08,10.0,West,8.1,-,N/A,,Scattered Clouds,280,2013-02-17 09:15:00
4:35 AM,15.8,6.8,68,30.08,10.0,West,6.9,-,N/A,,Clear,280,2013-02-17 09:35:00
4:55 AM,15.6,6.8,68,30.09,10.0,West,8.1,-,N/A,,Clear,280,2013-02-17 09:55:00
5:15 AM,15.3,6.8,69,30.09,10.0,WNW,8.1,-,N/A,,Clear,290,2013-02-17 10:15:00
5:35 AM,15.1,6.8,70,30.10,10.0,West,9.2,-,N/A,,Clear,280,2013-02-17 10:35:00
5:55 AM,14.9,6.8,70,30.11,10.0,West,9.2,-,N/A,,Clear,280,2013-02-17 10:55:00
6:15 AM,14.9,6.8,70,30.11,10.0,WNW,8.1,-,N/A,,Clear,290,2013-02-17 11:15:00
6:35 AM,14.7,7.2,72,30.13,10.0,WNW,6.9,-,N/A,,Clear,290,2013-02-17 11:35:00
6:55 AM,14.9,7.5,73,30.13,10.0,WNW,6.9,-,N/A,,Scattered Clouds,300,2013-02-17 11:55:00
7:15 AM,15.1,7.5,72,30.13,10.0,WNW,6.9,-,N/A,,Mostly Cloudy,300,2013-02-17 12:15:00
7:35 AM,14.9,7.7,73,30.14,10.0,WNW,9.2,-,N/A,,Mostly Cloudy,300,2013-02-17 12:35:00
7:55 AM,15.4,8.1,73,30.15,10.0,WNW,9.2,-,N/A,,Scattered Clouds,300,2013-02-17 12:55:00
8:15 AM,16.7,8.6,70,30.15,10.0,WNW,11.5,16.1,N/A,,Scattered Clouds,300,2013-02-17 13:15:00
8:35 AM,17.6,9.3,70,30.16,10.0,WNW,10.4,-,N/A,,Clear,300,2013-02-17 13:35:00
8:55 AM,18.3,9.5,68,30.17,10.0,WNW,12.7,-,N/A,,Clear,290,2013-02-17 13:55:00
9:15 AM,18.9,10.0,69,30.18,10.0,WNW,11.5,-,N/A,,Clear,300,2013-02-17 14:15:00
9:35 AM,19.6,10.6,68,30.18,10.0,NW,9.2,-,N/A,,Scattered Clouds,320,2013-02-17 14:35:00
9:55 AM,20.5,11.1,67,30.18,10.0,NW,11.5,-,N/A,,Scattered Clouds,310,2013-02-17 14:55:00
10:15 AM,21.0,11.5,67,30.19,10.0,NW,6.9,-,N/A,,Mostly Cloudy,310,2013-02-17 15:15:00
10:35 AM,21.4,11.8,67,30.20,10.0,NW,6.9,-,N/A,,Mostly Cloudy,310,2013-02-17 15:35:00
10:55 AM,22.5,12.2,65,30.20,10.0,NNW,8.1,-,N/A,,Mostly Cloudy,330,2013-02-17 15:55:00
11:15 AM,22.6,12.0,64,30.21,10.0,NW,8.1,-,N/A,,Mostly Cloudy,310,2013-02-17 16:15:00
11:35 AM,23.0,11.5,61,30.21,10.0,WNW,9.2,-,N/A,,Mostly Cloudy,290,2013-02-17 16:35:00
11:55 AM,23.4,11.5,60,30.21,10.0,WNW,9.2,-,N/A,,Mostly Cloudy,300,2013-02-17 16:55:00
12:15 PM,24.4,11.7,58,30.21,10.0,NW,4.6,-,N/A,,Mostly Cloudy,310,2013-02-17 17:15:00
12:35 PM,24.8,10.8,55,30.21,10.0,WNW,9.2,-,N/A,,Mostly Cloudy,300,2013-02-17 17:35:00
12:55 PM,24.6,10.4,55,30.21,10.0,NW,8.1,-,N/A,,Scattered Clouds,310,2013-02-17 17:55:00
1:15 PM,25.3,9.3,51,30.20,10.0,WNW,8.1,-,N/A,,Mostly Cloudy,290,2013-02-17 18:15:00
1:55 PM,25.7,6.4,44,30.19,10.0,WNW,11.5,-,N/A,,Scattered Clouds,290,2013-02-17 18:55:00
2:15 PM,26.1,6.3,43,30.19,10.0,WNW,10.4,16.1,N/A,,Scattered Clouds,290,2013-02-17 19:15:00
2:35 PM,27.0,6.6,42,30.19,10.0,West,9.2,-,N/A,,Mostly Cloudy,280,2013-02-17 19:35:00
2:55 PM,26.4,4.5,39,30.19,10.0,WNW,8.1,-,N/A,,Mostly Cloudy,300,2013-02-17 19:55:00
3:15 PM,26.8,4.1,38,30.19,10.0,NW,8.1,-,N/A,,Mostly Cloudy,310,2013-02-17 20:15:00
3:35 PM,27.0,5.0,39,30.19,10.0,WNW,5.8,-,N/A,,Mostly Cloudy,290,2013-02-17 20:35:00
3:55 PM,27.0,5.2,40,30.20,10.0,WNW,6.9,-,N/A,,Mostly Cloudy,290,2013-02-17 20:55:00
4:15 PM,26.8,6.1,41,30.20,10.0,WNW,8.1,-,N/A,,Mostly Cloudy,300,2013-02-17 21:15:00
4:35 PM,26.8,5.9,41,30.20,10.0,NW,4.6,-,N/A,,Overcast,310,2013-02-17 21:35:00
4:55 PM,27.3,6.4,41,30.20,10.0,WNW,8.1,-,N/A,,Overcast,290,2013-02-17 21:55:00
5:15 PM,27.0,6.4,42,30.20,10.0,NW,8.1,-,N/A,,Overcast,310,2013-02-17 22:15:00
5:35 PM,27.0,7.2,43,30.21,10.0,NW,6.9,-,N/A,,Mostly Cloudy,320,2013-02-17 22:35:00
5:55 PM,26.6,7.3,44,30.21,10.0,NW,6.9,-,N/A,,Mostly Cloudy,320,2013-02-17 22:55:00
6:15 PM,25.3,7.5,47,30.21,10.0,NW,5.8,-,N/A,,Scattered Clouds,310,2013-02-17 23:15:00
6:35 PM,25.0,6.8,46,30.21,10.0,Calm,Calm,-,N/A,,Clear,0,2013-02-17 23:35:00
6:55 PM,25.2,6.8,46,30.22,10.0,Calm,Calm,-,N/A,,Clear,0,2013-02-17 23:55:00
7:15 PM,24.8,7.0,47,30.22,10.0,Calm,Calm,-,N/A,,Clear,0,2013-02-18 00:15:00
7:35 PM,24.4,7.5,49,30.22,10.0,Calm,Calm,-,N/A,,Clear,0,2013-02-18 00:35:00
7:55 PM,23.7,9.1,54,30.22,10.0,Calm,Calm,-,N/A,,Clear,0,2013-02-18 00:55:00
8:15 PM,22.8,10.2,59,30.23,10.0,Calm,Calm,-,N/A,,Clear,0,2013-02-18 01:15:00
8:35 PM,22.5,10.0,59,30.23,10.0,Calm,Calm,-,N/A,,Clear,0,2013-02-18 01:35:00
8:55 PM,20.7,10.4,65,30.22,10.0,East,3.5,-,N/A,,Clear,100,2013-02-18 01:55:00
9:15 PM,19.4,11.1,70,30.22,10.0,ESE,4.6,-,N/A,,Clear,120,2013-02-18 02:15:00
9:35 PM,18.7,10.8,71,30.23,10.0,East,4.6,-,N/A,,Clear,100,2013-02-18 02:35:00
9:55 PM,18.5,10.8,72,30.23,10.0,ESE,4.6,-,N/A,,Clear,110,2013-02-18 02:55:00
10:15 PM,18.5,10.4,71,30.23,10.0,East,3.5,-,N/A,,Clear,100,2013-02-18 03:15:00
10:35 PM,18.1,10.4,72,30.23,10.0,ESE,4.6,-,N/A,,Clear,110,2013-02-18 03:35:00
10:55 PM,18.5,9.5,68,30.23,10.0,ESE,5.8,-,N/A,,Clear,120,2013-02-18 03:55:00
11:15 PM,19.0,9.0,65,30.23,10.0,ESE,5.8,-,N/A,,Clear,120,2013-02-18 04:15:00
11:35 PM,18.7,8.6,65,30.24,10.0,SE,4.6,-,N/A,,Clear,140,2013-02-18 04:35:00
11:55 PM,18.5,8.8,66,30.24,10.0,ESE,3.5,-,N/A,,Clear,120,2013-02-18 04:55:00